Torna al catalogo

QIANFAN-153

AttivoComunicazioniPO
NORAD 69112·PAYLOAD·🇨🇳 China

Lanciato May 17, 2026 da Wenchang Space Launch Site

Loading…

Prossimi Passaggi (prossime 24 ore)

TLE

AggiornatoSource: Space-Track

Epoca: Sep 14, 2026, 14:52 UTC

1 69112U 26108J   26257.61976179  .00000097  00000-0  13240-3 0  9993
2 69112  89.0182  13.0783 0002216 104.8744 255.2653 13.51023889 16522

Traccia QIANFAN-153 in tempo reale con AllMySat

Download on the App Store